Cloquet, MN

10:47 AM CST on February 10, 2016 (GMT -0600)
Cloquet Carlton County

Weather History for KCOQ - December, 2011

Change the Weather History Date:

Tuesday, December 13, 2011

  Actual Average Record
Temperature  
Mean Temperature 32 °F -  
Max Temperature 33 °F 25 °F 44 °F (1998)
Min Temperature 30 °F 12 °F -14 °F (2010)
Degree Days  
Heating Degree Days 34    
Moisture  
Dew Point 30 °F    
Average Humidity 89    
Maximum Humidity 93    
Minimum Humidity 87    
Precipitation  
Precipitation 0.00 in - - ()
Sea Level Pressure  
Sea Level Pressure 30.29 in    
Wind  
Wind Speed 6 mph (East)    
Max Wind Speed 9 mph    
Max Gust Speed -    
Visibility 1 miles    
Events Fog , Snow    
Averages and records for this station are not official NWS values.
T = Trace of Precipitation, MM = Missing Value Source: NWS Daily Summary

Daily Weather History Graph

Daily Weather History Graph

Search for Another Location

Airport or City:

Trip Planner

Search our weather history database for the weather conditions in past years. The results will help you decide how hot, cold, wet, or windy it might be!

Date:

Astronomy

Dec. 13, 2011 Rise Set
Actual Time 7:46 AM CST 4:22 PM CST
Civil Twilight 7:11 AM CST 4:57 PM CST
Nautical Twilight 6:32 AM CST 5:35 PM CST
Astronomical Twilight 5:55 AM CST 6:12 PM CST
Moon 7:44 PM CST (12/13) 9:50 AM CST (12/13)
Length of Visible Light 9h 46m
Length of Day
8h 36m
Waning Gibbous, 90% of the Moon is Illuminated
Dec 13
Waning Gibbous
Dec 17
Last Quarter
Dec 24
New
Jan 1
First Quarter
Jan 9
Full

Hourly Weather History & Observations

Time (CST) Temp. Windchill Dew Point Humidity Pressure Visibility Wind Dir Wind Speed Gust Speed Precip Events Conditions
12:16 AM 33.8 °F 28.6 °F 30.2 °F 87% 30.31 in 3.0 mi ENE 5.8 mph - N/A   Overcast
12:36 AM 33.8 °F 30.8 °F 30.2 °F 87% 30.31 in 3.0 mi ENE 3.5 mph - N/A   Overcast
12:56 AM 33.8 °F 28.6 °F 30.2 °F 87% 30.31 in 2.5 mi East 5.8 mph - N/A   Overcast
1:16 AM 33.8 °F 30.8 °F 30.2 °F 87% 30.31 in 2.0 mi East 3.5 mph - N/A   Overcast
1:35 AM 32.0 °F 28.7 °F 30.2 °F 93% 30.30 in 2.5 mi ENE 3.5 mph - N/A   Overcast
1:56 AM 32.0 °F 25.6 °F 30.2 °F 93% 30.30 in 2.5 mi East 6.9 mph - N/A   Overcast
2:16 AM 32.0 °F 24.2 °F 30.2 °F 93% 30.31 in 2.5 mi ENE 9.2 mph - N/A   Overcast
2:36 AM 32.0 °F 27.5 °F 30.2 °F 93% 30.31 in 2.5 mi East 4.6 mph - N/A   Overcast
2:56 AM 32.0 °F - 28.4 °F 87% 30.33 in 2.5 mi Calm Calm - N/A   Overcast
3:16 AM 32.0 °F 26.4 °F 28.4 °F 87% 30.33 in 2.0 mi East 5.8 mph - N/A   Overcast
3:36 AM 32.0 °F 25.6 °F 28.4 °F 87% 30.32 in 2.0 mi ENE 6.9 mph - N/A   Overcast
3:56 AM 32.0 °F 25.6 °F 28.4 °F 87% 30.32 in 1.2 mi East 6.9 mph - N/A   Overcast
4:36 AM 32.0 °F 25.6 °F 28.4 °F 87% 30.31 in 3.0 mi East 6.9 mph - N/A   Overcast
4:56 AM 32.0 °F 24.8 °F 28.4 °F 87% 30.31 in 2.5 mi East 8.1 mph - N/A   Overcast
5:16 AM 32.0 °F 26.4 °F 28.4 °F 87% 30.31 in 1.8 mi East 5.8 mph - N/A   Overcast
5:36 AM 32.0 °F 25.6 °F 28.4 °F 87% 30.32 in 1.2 mi East 6.9 mph - N/A   Overcast
5:56 AM 32.0 °F 26.4 °F 28.4 °F 87% 30.32 in 1.2 mi East 5.8 mph - N/A   Overcast
6:15 AM 32.0 °F 24.8 °F 28.4 °F 87% 30.32 in 1.2 mi East 8.1 mph - N/A   Overcast
6:36 AM 32.0 °F 27.5 °F 28.4 °F 87% 30.33 in 1.0 mi East 4.6 mph - N/A   Overcast
6:56 AM 32.0 °F 28.7 °F 28.4 °F 87% 30.33 in 0.5 mi East 3.5 mph - N/A Fog Fog
7:15 AM 30.2 °F 22.6 °F 28.4 °F 93% 30.32 in 1.2 mi East 8.1 mph - N/A   Overcast
7:36 AM 30.2 °F 23.4 °F 28.4 °F 93% 30.32 in 2.0 mi East 6.9 mph - N/A   Overcast
7:56 AM 30.2 °F 23.4 °F 28.4 °F 93% 30.32 in 2.5 mi East 6.9 mph - N/A   Overcast
8:15 AM 30.2 °F 22.6 °F 28.4 °F 93% 30.31 in 1.8 mi East 8.1 mph - N/A   Overcast
8:36 AM 32.0 °F 26.4 °F 28.4 °F 87% 30.32 in 2.0 mi East 5.8 mph - N/A   Overcast
8:55 AM 32.0 °F 27.5 °F 28.4 °F 87% 30.32 in 1.0 mi East 4.6 mph - N/A   Overcast
9:16 AM 32.0 °F 26.4 °F 28.4 °F 87% 30.32 in 1.0 mi East 5.8 mph - N/A   Overcast
9:36 AM 32.0 °F 24.8 °F 30.2 °F 93% 30.32 in 0.8 mi East 8.1 mph - N/A   Overcast
9:55 AM 32.0 °F 25.6 °F 30.2 °F 93% 30.32 in 1.0 mi East 6.9 mph - N/A   Overcast
10:16 AM 32.0 °F 24.8 °F 30.2 °F 93% 30.32 in 1.0 mi East 8.1 mph - N/A   Overcast
10:36 AM 32.0 °F 25.6 °F 30.2 °F 93% 30.31 in 1.0 mi East 6.9 mph - N/A   Overcast
10:56 AM 32.0 °F 25.6 °F 30.2 °F 93% 30.31 in 0.8 mi East 6.9 mph - N/A   Overcast
11:16 AM 32.0 °F 26.4 °F 30.2 °F 93% 30.31 in 0.8 mi East 5.8 mph - N/A   Overcast
11:36 AM 33.8 °F 27.7 °F 30.2 °F 87% 30.31 in 0.5 mi ESE 6.9 mph - N/A Fog Fog
11:56 AM 33.8 °F 27.0 °F 30.2 °F 87% 30.30 in 0.2 mi East 8.1 mph - N/A Fog Fog
12:16 PM 33.8 °F 27.7 °F 30.2 °F 87% 30.29 in 0.2 mi ESE 6.9 mph - N/A Fog Fog
12:36 PM 33.8 °F 27.7 °F 30.2 °F 87% 30.29 in 0.2 mi East 6.9 mph - N/A Fog Fog
1:15 PM 33.8 °F 27.7 °F 30.2 °F 87% 30.27 in 0.2 mi East 6.9 mph - N/A Fog Fog
1:36 PM 33.8 °F 28.6 °F 30.2 °F 87% 30.26 in 0.2 mi East 5.8 mph - N/A Fog Fog
1:56 PM 33.8 °F 27.7 °F 30.2 °F 87% 30.25 in 0.2 mi East 6.9 mph - N/A Fog Fog
2:16 PM 33.8 °F 29.6 °F 30.2 °F 87% 30.24 in 0.2 mi East 4.6 mph - N/A Fog Fog
2:36 PM 33.8 °F 29.6 °F 30.2 °F 87% 30.24 in 0.2 mi ESE 4.6 mph - N/A Fog Fog
2:56 PM 33.8 °F 27.7 °F 30.2 °F 87% 30.24 in 0.2 mi East 6.9 mph - N/A Fog Fog
3:15 PM 33.8 °F 28.6 °F 30.2 °F 87% 30.24 in 0.2 mi East 5.8 mph - N/A Fog Fog
3:36 PM 33.8 °F 27.7 °F 30.2 °F 87% 30.23 in 0.2 mi East 6.9 mph - N/A Fog Fog
3:55 PM 33.8 °F 29.6 °F 30.2 °F 87% 30.23 in 0.2 mi East 4.6 mph - N/A Fog Fog
4:16 PM 33.8 °F 28.6 °F 30.2 °F 87% 30.22 in 0.2 mi East 5.8 mph - N/A Fog Fog
4:36 PM 33.8 °F 28.6 °F 30.2 °F 87% 30.22 in 0.2 mi ESE 5.8 mph - N/A Fog Fog
4:56 PM 33.8 °F 29.6 °F 30.2 °F 87% 30.22 in 0.2 mi ESE 4.6 mph - N/A Snow Light Snow
5:16 PM 33.8 °F 29.6 °F 30.2 °F 87% 30.22 in 0.2 mi East 4.6 mph - N/A Snow Light Snow
5:36 PM 33.8 °F 30.8 °F 30.2 °F 87% 30.22 in 0.2 mi East 3.5 mph - N/A Snow Light Snow
5:56 PM 33.8 °F 28.6 °F 30.2 °F 87% 30.21 in 0.2 mi East 5.8 mph - N/A Fog Fog
6:15 PM 33.8 °F 30.8 °F 30.2 °F 87% 30.21 in 0.2 mi East 3.5 mph - N/A Fog Fog
6:36 PM 33.8 °F 29.6 °F 30.2 °F 87% 30.20 in 0.2 mi East 4.6 mph - N/A Snow Light Snow
6:56 PM 33.8 °F 30.8 °F 30.2 °F 87% 30.19 in 0.2 mi East 3.5 mph - N/A Snow Light Snow
7:36 PM 33.8 °F 29.6 °F 30.2 °F 87% 30.17 in 0.2 mi East 4.6 mph - N/A Fog Fog
7:55 PM 33.8 °F 29.6 °F 30.2 °F 87% 30.17 in 0.2 mi ESE 4.6 mph - N/A Fog Fog
8:16 PM 33.8 °F 29.6 °F 30.2 °F 87% 30.17 in 0.2 mi SE 4.6 mph - N/A Fog Fog
8:36 PM 33.8 °F 28.6 °F 30.2 °F 87% 30.16 in 0.2 mi East 5.8 mph - N/A Fog Fog
9:15 PM 33.8 °F 29.6 °F 30.2 °F 87% 30.14 in 0.2 mi ESE 4.6 mph - N/A Fog Fog
9:36 PM 33.8 °F 28.6 °F 30.2 °F 87% 30.13 in 0.2 mi ESE 5.8 mph - N/A Fog Fog
9:56 PM 33.8 °F 29.6 °F 30.2 °F 87% 30.13 in 0.2 mi ESE 4.6 mph - N/A Fog Fog
10:15 PM 33.8 °F 29.6 °F 30.2 °F 87% 30.12 in 0.2 mi ESE 4.6 mph - N/A Fog Fog
10:36 PM 33.8 °F 29.6 °F 30.2 °F 87% 30.12 in 0.2 mi ESE 4.6 mph - N/A Fog Fog
10:56 PM 33.8 °F 29.6 °F 30.2 °F 87% 30.12 in 0.2 mi East 4.6 mph - N/A Fog Fog
11:16 PM 33.8 °F 29.6 °F 30.2 °F 87% 30.11 in 0.2 mi ESE 4.6 mph - N/A Fog Fog
11:35 PM 33.8 °F 29.6 °F 30.2 °F 87% 30.10 in 0.2 mi ESE 4.6 mph - N/A Fog Fog
11:56 PM 33.8 °F 29.6 °F 30.2 °F 87% 30.09 in 0.5 mi ESE 4.6 mph - N/A Fog Fog